Погода в Кипеле

Россия / Курганская область     55°16′40″N   64°31′26″E
темп.,
°C
ветер,
м/с
пор.,
м/с
влажн.,
%
обл.,
%
осадки,
мм/ч
давл.,
гПа
погр.,
м
30 июня, чт
чт3023:00+7зсз379498 0.1 1006141
02:00+7з48955 0.0 1005136
05:00+6сз49905 0.0 1005166
08:00+12сз47735 0.0 1006363
11:00+16сз46525 0.0 10071385
14:00+18зсз455055 0.0 10071994
17:00+17з336197 0.1 1008668
20:00+15сз22775 0.6 100828
1 июля, пт
пт123:00+11с22835 0.6 100911
02:00+9с228640 0.0 101011
05:00+8ссв228553 0.0 101232
08:00+13ссв33715 0.0 1012344
11:00+17ссз45544 0.0 10131095
14:00+19сз56535 0.0 10121475
17:00+18ссз56545 0.0 10121525
20:00+15сз34725 0.0 101394
2 июля, сб
сб223:00+11сз23774 0.0 101319
02:00+10сз33841 0.0 101322
05:00+10сз338271 0.0 101347
08:00+15зсз3472100 0.0 1013315
11:00+18ссз346147 0.0 10131073
14:00+19с235889 0.6 10131044
17:00+20зсз335398 0.7 10121499
20:00+17зсз337513 0.2 101254
3 июля, вс
вс323:00+13ссз12815 0.2 101211
02:00+11с11805 0.0 101110
05:00+11сз11815 0.0 101110
08:00+16з11675 0.0 1010291
11:00+20з22555 0.0 10091324
14:00+21сз225078 0.1 10071884
17:00+19з2265100 0.1 100630
20:00+17зсз2266100 0.0 100516
4 июля, пн
пн423:00+14св117688 0.0 100414
02:00+15ссв3376100 0.0 100468
05:00+13ссв4892100 0.0 1004306
08:00+13ссв6992100 0.1 1005633
11:00+11ссв71296100 2.4 1007590
14:00+11ссв71284100 0.8 1008712
17:00+12ссв3980100 0.8 1009515
20:00+13ссв496793 0.0 1009411